EW8371 Weather Reports


Display with metric or nautical units.
time (UTC)temp
F
wind
direction
speed
MPH
gust
MPH
rain 1hr
in
rain 24hr
in
rain mn
in
humidity
%
barometer
mb
20260510001556 52 163 0.0 0.0 0.00 0.20 0.03 49 1005.9
20260510000050 53 163 0.0 1.0 0.00 0.20 0.03 50 1005.7
20260509234547 53 146 0.0 2.0 0.00 0.20 0.03 52 1005.7
20260509233039 53 161 1.0 3.0 0.00 0.20 0.03 56 1005.6
20260509231539 53 201 1.0 6.0 0.00 0.20 0.03 58 1005.4
20260509230032 53 167 2.0 7.0 0.00 0.20 0.03 58 1005.3
20260509224529 53 196 7.0 14.0 0.00 0.20 0.03 57 1005.1
20260509223021 53 189 4.0 7.0 0.00 0.20 0.03 55 1005.2
20260509221519 53 177 4.0 10.0 0.00 0.20 0.03 54 1005.2
20260509220015 53 159 5.0 12.0 0.00 0.20 0.03 55 1005.2
20260509214508 53 184 4.0 9.0 0.00 0.20 0.03 53 1005.5
20260509213004 53 176 3.0 8.0 0.00 0.20 0.03 46 1005.7
20260509211602 52 172 5.0 8.0 0.00 0.20 0.03 38 1005.7
20260509210057 52 173 4.0 8.0 0.00 0.20 0.03 39 1005.9
20260509204550 52 161 3.0 7.0 0.00 0.20 0.03 41 1005.9
20260509203106 52 175 4.0 7.0 0.00 0.20 0.03 42 1006.1
20260509201540 51 175 5.0 7.0 0.00 0.20 0.03 38 1006.1
20260509200036 51 170 4.0 9.0 0.00 0.20 0.03 33 1006.2
20260509194502 51 181 2.0 5.0 0.00 0.20 0.03 31 1006.4
20260509193131 51 200 2.0 7.0 0.00 0.20 0.03 32 1006.6
20260509191526 51 180 3.0 10.0 0.00 0.20 0.03 37 1006.6
20260509190019 51 178 5.0 9.0 0.00 0.20 0.03 45 1006.7
20260509184513 52 177 5.0 8.0 0.00 0.20 0.03 50 1006.8
20260509183013 52 158 5.0 10.0 0.00 0.20 0.03 52 1006.8
20260509181502 52 156 7.0 12.0 0.00 0.20 0.03 50 1006.8
20260509180106 52 175 7.0 12.0 0.01 0.20 0.03 41 1006.8
20260509174551 51 172 4.0 10.0 0.01 0.20 0.03 36 1006.7
20260509173046 51 135 4.0 8.0 0.01 0.20 0.03 31 1006.7
20260509171541 51 191 6.0 11.0 0.01 0.20 0.03 31 1006.8
20260509170037 51 202 7.0 12.0 0.00 0.19 0.02 28 1007.0
20260509164533 51 142 6.0 12.0 0.01 0.19 0.02 22 1007.1
20260509163058 50 232 6.0 12.0 0.02 0.25 0.02 16 1007.3
20260509161557 50 168 4.0 10.0 0.02 0.25 0.02 13 1007.6
20260509160019 50 169 2.0 7.0 0.04 0.25 0.02 11 1007.7
20260509154520 49 141 1.0 3.0 0.03 0.24 0.01 10 1008.0
20260509153012 48 87 0.0 0.0 0.03 0.23 0.23 11 1008.3
20260509151503 46 10 0.0 0.0 0.03 0.22 0.22 15 1008.5
20260509150058 46 29 0.0 0.0 0.02 0.21 0.21 15 1008.6
20260509144604 46 31 0.0 0.0 0.03 0.21 0.21 16 1008.8
20260509143055 45 355 1.0 2.0 0.03 0.20 0.20 17 1008.9
20260509141555 44 28 0.0 2.0 0.03 0.19 0.19 18 1008.8
20260509140054 44 355 0.0 2.0 0.04 0.19 0.19 19 1008.8
20260509134554 43 5 1.0 3.0 0.05 0.18 0.18 21 1008.8
20260509133051 43 341 0.0 2.0 0.06 0.17 0.17 21 1008.9
20260509131551 44 5 0.0 2.0 0.06 0.16 0.16 20 1008.7
20260509130100 43 346 1.0 2.0 0.06 0.15 0.15 21 1008.7
20260509124549 42 170 0.0 0.0 0.04 0.13 0.13 22 1009.0
20260509123051 42 170 0.0 0.0 0.02 0.11 0.11 23 1009.2
20260509121545 41 170 0.0 0.0 0.02 0.10 0.10 24 1009.2
20260509120044 41 170 0.0 0.0 0.01 0.09 0.09 25 1009.2
20260509114544 40 170 0.0 0.0 0.01 0.09 0.09 27 1009.3
20260509113042 40 170 0.0 1.0 0.01 0.09 0.09 28 1009.3
20260509111539 39 170 0.0 0.0 0.00 0.08 0.08 30 1009.2
20260509110038 39 170 0.0 2.0 0.00 0.08 0.08 31 1009.1
20260509104538 39 170 0.0 0.0 0.01 0.08 0.08 32 1009.1
20260509103034 38 170 0.0 0.0 0.01 0.08 0.08 34 1008.9
20260509101538 38 170 0.0 1.0 0.02 0.08 0.08 35 1008.8
20260509100035 38 170 0.0 1.0 0.02 0.08 0.08 37 1008.8
20260509094532 38 170 0.0 1.0 0.01 0.07 0.07 40 1009.0
20260509093031 38 136 0.0 3.0 0.01 0.07 0.07 40 1009.1
20260509091529 37 173 0.0 3.0 0.00 0.06 0.06 41 1009.4
20260509090029 37 161 0.0 0.0 0.00 0.06 0.06 40 1009.4
20260509084534 37 161 0.0 0.0 0.00 0.06 0.06 39 1009.6
20260509083034 37 161 0.0 0.0 0.00 0.06 0.06 40 1009.6
20260509081528 36 161 0.0 0.0 0.00 0.06 0.06 41 1009.7
20260509080034 36 161 0.0 0.0 0.00 0.06 0.06 41 1009.7
20260509074524 36 161 0.0 0.0 0.00 0.06 0.06 44 1009.6
20260509073021 36 161 0.0 0.0 0.00 0.06 0.06 45 1009.6
20260509071520 35 161 0.0 0.0 0.00 0.06 0.06 46 1009.6
20260509070120 35 161 0.0 0.0 0.00 0.06 0.06 50 1009.7
20260509064521 35 161 0.0 0.0 0.00 0.06 0.06 53 1009.7
20260509063013 35 161 0.0 0.0 0.00 0.06 0.06 56 1009.9
20260509061512 35 161 0.0 0.0 0.00 0.06 0.06 58 1010.1
20260509060010 36 161 0.0 0.0 0.00 0.06 0.06 60 1010.2
20260509054507 36 161 0.0 0.0 0.00 0.06 0.06 62 1010.2
20260509053003 37 161 0.0 0.0 0.00 0.06 0.06 64 1010.4
20260509051503 38 161 0.0 0.0 0.00 0.06 0.06 66 1010.6
20260509050136 38 161 0.0 0.0 0.00 0.06 0.06 67 1010.5
20260509044603 39 161 0.0 0.0 0.00 0.06 0.06 67 1010.7
20260509043025 39 161 0.0 0.0 0.00 0.06 0.06 68 1010.8
20260509041529 40 161 0.0 0.0 0.00 0.06 0.06 67 1010.7
20260509040022 39 161 0.0 0.0 0.00 0.06 0.06 69 1010.5
20260509034521 39 161 0.0 0.0 0.00 0.06 0.06 70 1010.5
20260509033021 40 161 0.0 0.0 0.00 0.06 0.06 71 1010.7
20260509031525 40 161 0.0 2.0 0.00 0.06 0.06 71 1010.6
20260509030033 40 291 0.0 0.0 0.00 0.06 0.06 72 1010.6
20260509024518 40 163 0.0 0.0 0.00 0.06 0.06 72 1010.8
20260509023025 39 340 0.0 0.0 0.00 0.06 0.06 73 1010.8
20260509021516 39 340 0.0 0.0 0.00 0.06 0.06 74 1010.7
20260509020018 39 340 0.0 0.0 0.00 0.06 0.06 74 1010.7
20260509014511 39 340 0.0 0.0 0.00 0.06 0.06 74 1010.5
20260509013013 39 340 0.0 0.0 0.00 0.06 0.06 74 1010.3
20260509011510 40 340 0.0 0.0 0.00 0.06 0.06 74 1010.2
20260509010012 41 338 0.0 0.0 0.00 0.06 0.06 73 1010.0
20260509004520 42 298 0.0 0.0 0.00 0.06 0.06 71 1009.7
20260509003006 43 302 0.0 0.0 0.00 0.06 0.06 70 1009.4